Location: Keeble Observatory
(37.7625°N, 77.4755°W)
Time: 11:06:55
(UTC-04:00)

Daily predictions for brighter satellites

Satellite Brightness Start Highest point End
(mag) Time Altitude Azimuth Time Altitude Azimuth Time Altitude Azimuth
COSMOS 2455 2.9 20:51:00 10° S 20:56:52 59° ESE 21:02:46 10° NE
Cosmos 1726 Rocket 4.3 20:52:41 10° NNW 20:57:03 57° W 21:01:20 10° S
SeaSat 1 4.3 20:57:13 10° E 21:00:29 18° NE 21:03:45 10° N
ALOS 2.6 21:02:39 10° S 21:07:17 68° WSW 21:11:58 10° NNW
Cosmos 2369 Rocket 3.3 21:07:57 10° N 21:12:53 30° ENE 21:17:25 11° ESE
ISS -1.7 21:11:05 10° WSW 21:14:10 39° NW 21:17:16 10° NE
Cosmos 1602 Rocket 3.6 21:12:49 10° S 21:17:17 88° E 21:21:47 10° N
Cosmos 1666 3.1 21:13:32 10° NNW 21:17:24 67° W 21:21:16 10° S
ATLAS 3B R/B 3.2 21:11:18 10° S 21:18:36 49° ESE 21:25:50 10° NE
USA 186 3.2 21:16:36 10° SSW 21:19:05 29° W 21:21:26 10° NW
Cosmos 2058 Rocket 4.4 21:17:18 10° NNW 21:21:21 39° W 21:25:24 10° SSW
Tsikada Rocket 4.1 21:23:03 10° S 21:29:28 86° E 21:35:52 10° N
Cosmos 1812 Rocket 3.5 21:25:53 10° N 21:30:18 71° E 21:34:25 12° SSE
PSLV R/B 4.3 21:27:52 10° W 21:31:18 48° N 21:34:46 10° ENE
YAOGAN 6 4.2 21:31:59 16° ESE 21:33:43 21° ENE 21:36:36 10° NNE
CZ-2C R/B 2.2 21:33:20 10° SSW 21:35:24 29° W 21:37:27 10° NNW
SPOT 5 3.0 21:32:24 16° SE 21:35:38 48° ENE 21:39:48 10° N
H-2A R/B 2.3 21:36:28 10° S 21:40:42 68° WSW 21:45:04 10° NNW
USA 234 4.5 21:35:13 10° E 21:40:57 33° NNE 21:46:41 10° NNW
Lacrosse 4 Rocket 1.3 21:37:49 10° S 21:41:46 56° ESE 21:45:46 10° NE
CZ-4 SHROUD 3.3 21:40:45 23° SSE 21:42:29 59° ENE 21:45:37 10° N
ERS-1 Rocket 3.5 21:38:07 10° S 21:43:02 57° W 21:48:00 10° NNW
deb Chang Zheng 4 4.4 21:40:32 10° N 21:44:49 53° WNW 21:49:03 10° SSW
GEOS 3 Rocket 3.9 21:42:38 15° SSE 21:46:57 65° WSW 21:52:09 10° NW
Cosmos 1515 3.6 21:43:33 10° S 21:47:24 87° E 21:51:17 10° N
PSLV R/B 3.1 21:47:37 27° SSE 21:49:08 70° ENE 21:52:14 10° N
Meteor 2-12 Rocket 4.4 21:45:15 10° N 21:51:22 85° E 21:56:36 14° S
COSMOS 2406 4.4 21:51:43 20° ESE 21:52:48 21° E 21:56:59 10° NE
Cosmos 1066 Rocket 4.2 21:48:26 10° S 21:54:03 68° E 21:59:51 10° NNE
MetOp-A 4.2 21:52:36 21° SSE 21:56:13 65° ENE 22:01:31 10° N
Atlas Centaur 2 3.2 21:51:02 10° WSW 21:57:52 49° S 22:03:24 20° ESE
Envisat 3.1 21:54:15 16° S 21:58:20 80° WSW 22:03:27 10° NNW
Cosmos 407 Rocket 3.4 21:56:31 10° S 22:01:45 70° ESE 22:06:57 10° NNE
USA 245 4.4 21:58:44 24° SE 22:02:06 53° ENE 22:06:55 10° N
Cosmos 1634 Rocket 4.0 21:56:58 10° N 22:03:09 71° E 22:07:18 22° SSE
USA 238 DEB 4.1 21:57:06 10° S 22:03:36 40° ESE 22:10:05 10° NE
USA 238 4.2 21:57:13 10° S 22:03:42 40° ESE 22:10:10 10° NE
Cosmos 1943 Rocket 3.2 22:01:26 10° N 22:06:21 31° ENE 22:08:55 22° ESE
Meteor 1-22 Rocket 4.4 22:00:55 10° N 22:06:32 61° E 22:09:45 27° SSE
Cosmos 1900 4.4 22:02:07 10° SSW 22:07:15 88° ESE 22:12:26 10° NNE
Cosmos 1953 Rocket 3.5 22:06:21 23° S 22:09:03 75° E 22:13:30 10° N
Cosmos 489 Rocket 4.4 22:03:16 10° S 22:09:35 77° ESE 22:15:58 10° NNE
SL-27 R/B 3.7 22:11:35 25° ENE 22:11:35 25° ENE 22:13:38 10° NE
Cosmos 1943 3.7 22:06:32 10° SW 22:12:08 62° WNW 22:17:47 10° NNE
Cosmos-2242 4.2 22:10:10 10° NNE 22:13:57 28° ENE 22:14:41 26° E
Cosmos 1939 Rocket 4.4 22:13:44 12° SSW 22:17:04 32° W 22:20:49 10° NNW
Cosmos 1953 3.6 22:17:07 10° NNE 22:20:25 24° ENE 22:20:31 24° E
SL-08 RB Rocket 4.1 22:19:23 36° ESE 22:20:43 48° ENE 22:25:05 10° N
Cosmos 1954 Rocket 4.0 22:19:49 26° S 22:22:43 62° ESE 22:27:57 10° NNE
Cosmos 2279 Rocket 4.1 22:16:45 10° N 22:22:56 58° E 22:25:43 32° SE
Cosmos 1932 4.3 22:18:11 10° SSW 22:24:17 68° ESE 22:30:27 10° NE
Cosmos 1346 Rocket 3.4 22:27:06 22° SSW 22:29:26 54° W 22:33:18 10° N
CZ-4C R/B 4.1 22:32:02 13° E 22:32:02 13° E 22:33:07 10° ENE
Cosmos 1842 3.1 22:35:17 64° SE 22:35:35 67° E 22:39:29 10° NNE
SeaSat 1 2.7 22:35:39 36° S 22:37:33 62° WSW 22:42:27 10° NNW
ARGOS 3.1 22:36:50 38° SSE 22:38:59 90° E 22:44:26 10° NNW
Cosmos 1758 Rocket 4.1 22:40:29 26° SSW 22:42:44 55° W 22:47:01 10° N
Meteor 1-21 4.3 22:39:58 24° SSW 22:43:37 78° W 22:49:28 10° N
CARTOSAT-1 4.0 22:45:04 43° E 22:45:22 44° ENE 22:49:29 10° N
Cosmos 1741 Rocket 4.3 22:45:25 46° ESE 22:45:52 47° ESE 22:50:57 10° NNE
Cosmos 2180 Rocket 4.4 22:43:19 10° N 22:49:39 80° E 22:52:00 42° SSE
ISS 0.3 22:50:48 10° NNW 22:51:21 10° NNW 22:51:53 10° N
Geosat 3.9 22:47:17 10° NNE 22:52:19 70° ESE 22:53:29 51° S
Cosmos 2369 Rocket 3.3 22:51:47 10° NW 22:56:54 36° WSW 22:59:14 25° SSW
Landsat 7 3.7 22:58:25 65° SSE 22:59:08 90° SE 23:03:55 10° NNW
Cosmos 1023 Rocket 4.4 22:59:56 47° SSW 23:01:32 90° WNW 23:06:50 10° NNE
Cosmos 1850 Rocket 3.9 23:01:15 61° SSE 23:01:57 70° ESE 23:07:09 10° NNE
Cosmos 1766 4.1 22:58:43 10° NNW 23:02:33 44° W 23:03:01 42° WSW
H-2A R/B 1.8 23:04:51 65° SE 23:05:31 78° ENE 23:10:36 10° N
DELTA 2 DEB (DPAF) 4.4 23:05:25 56° SW 23:05:59 61° WSW 23:10:26 10° NNW
Meteor 2-5 Rocket 4.4 23:06:10 38° E 23:06:20 38° E 23:11:37 10° NNE
Cosmos 1570 Rocket 4.0 23:02:07 10° NNW 23:07:29 68° ENE 23:08:12 60° ESE
Cosmos 1758 3.4 23:04:22 10° N 23:08:15 79° NNW 23:08:15 79° NNW
Cosmos 1140 Rocket 3.5 23:07:18 44° SSW 23:08:58 77° WNW 23:14:14 10° NNE
PSLV R/B 4.4 23:05:39 10° WNW 23:08:17 44° NW 23:08:17 44° NW
ATLAS 3B R/B 4.3 23:02:26 10° WSW 23:09:31 39° NW 23:16:28 10° NNE
Spot 4 3.8 23:11:57 67° E 23:12:08 68° ENE 23:16:54 10° N
IGS 5A 3.5 23:12:41 71° NNE 23:12:41 71° NNE 23:16:31 10° N
Terra 1.6 23:14:42 81° SSE 23:14:57 90° SW 23:19:44 10° NNW
Cosmos 1842 Rocket 3.7 23:11:20 10° N 23:15:21 65° NE 23:15:21 65° NE
Cosmos 1340 4.3 23:17:41 26° NE 23:17:41 26° NE 23:19:39 10° NNE
NOSS 3-2 (A) 3.6 23:20:30 52° ESE 23:20:30 52° ESE 23:26:38 10° NE
Lacrosse 4 Rocket 4.4 23:18:59 10° WNW 23:20:52 13° NW 23:22:44 10° NNW
USA 234 3.2 23:21:50 53° SSE 23:23:31 79° SW 23:30:07 10° NW
Cosmos 1544 4.3 23:21:23 10° N 23:23:55 39° NNE 23:23:55 39° NNE
Cosmos 2084 3.9 23:21:05 10° NW 23:24:37 56° WNW 23:24:37 56° WNW
Cosmos 1092 Rocket 3.9 23:27:08 60° S 23:28:20 82° E 23:34:39 10° N
Cosmos 1470 4.0 23:25:21 10° N 23:27:56 36° NNE 23:27:56 36° NNE
Cosmos 1805 4.2 23:26:46 10° NNW 23:29:59 45° WNW 23:29:59 45° WNW
Cosmos 614 Rocket 3.9 23:30:46 69° SW 23:31:17 77° WNW 23:36:31 10° NNE
COSMOS 2406 4.0 23:33:42 26° SW 23:36:41 49° WNW 23:42:15 10° NNE
Nadezhda 4 Rocket 4.3 23:34:52 42° SW 23:36:55 63° W 23:43:12 10° N
Atlas Centaur 2 3.6 23:40:04 10° W 23:46:02 37° SW 23:46:02 37° SW
Cosmos 2082 Rocket 4.0 23:49:20 18° ENE 23:49:20 18° ENE 23:51:37 10° NE
Cosmos 2221 3.6 23:44:40 10° N 23:47:39 37° NNE 23:47:39 37° NNE
Cosmos 1943 Rocket 3.2 23:45:08 10° NW 23:50:02 33° WSW 23:50:26 32° WSW
SL-8 R/B 4.0 23:45:18 10° NW 23:49:39 64° N 23:49:39 64° N
Cosmos 1953 4.5 23:53:48 10° NW 23:56:18 19° W 23:56:18 19° W
